Regional Weather Roundup
Issued by NWS

Home | Current Version | Previous Version | Graphics & Text | Print | Product List | Glossary On
Versions: 1 2 3 4 5 6 7 8 9 10 11 12 13 14 15 16 17 18 19 20 21 22 23 24 25 26 27 28 29 30 31 32 33 34 35 36 37 38 39 40 41 42 43 44 45 46 47 48 49 50
000
ASUS45 KPSR 202200
RWRAZ

PRELIMINARY ARIZONA REGIONAL HOURLY WEATHER ROUNDUP
NATIONAL WEATHER SERVICE PHOENIX AZ
300 PM MST MON OCT 20 2014

NOTE: FAIR INDICATES FEW OR NO CLOUDS BELOW 12,000 FEET WITH NO
SIGNIFICANT WEATHER AND/OR OBSTRUCTIONS TO VISIBILITY.

AZZ001>003-036-202300-
NORTHWEST ARIZONA

CITY           SKY/WX    TMP DP  RH WIND       PRES   REMARKS
KINGMAN        SUNNY     80  44  27 SW9       29.96F
$$

AZZ004>008-015-016-018-202300-
NORTH CENTRAL ARIZONA

CITY           SKY/WX    TMP DP  RH WIND       PRES   REMARKS
GRAND CANYON   MOSUNNY   64  36  35 VRB3      30.14F
PRESCOTT       MOSUNNY   73  37  27 E6        30.05F
FLAGSTAFF      MOSUNNY   60  40  47 SW14      30.17S
PAYSON         PTSUNNY   72  46  40 SW8       30.08F
$$

AZZ009>014-017-202300-
NORTHEAST ARIZONA

CITY           SKY/WX    TMP DP  RH WIND       PRES   REMARKS
WINSLOW        NOT AVBL
SAINT JOHNS    SUNNY     68  41  37 W9        30.08F
$$

AZZ023-202300-
GREATER PHOENIX AREA

CITY           SKY/WX    TMP DP  RH WIND       PRES   REMARKS
PHOENIX        MOSUNNY   87  47  24 E6        29.82F
GLENDALE       MOSUNNY   88  48  25 NE5       29.84F
DEER VALLEY    SUNNY     86  46  24 VRB3      29.84F
SCOTTSDALE     SUNNY     87  46  24 CALM      29.86F
MESA-FALCON    MOSUNNY   84  46  26 VRB5      29.84F
MESA-GATEWAY   MOSUNNY   86  48  26 N7        29.86F
CHANDLER       MOSUNNY   88  48  25 NE8       29.83F
$$

AZZ027-028-202300-
SOUTHWEST MARICOPA COUNTY AND PINAL COUNTY

CITY           SKY/WX    TMP DP  RH WIND       PRES   REMARKS
CASA GRANDE    SUNNY     84  46  26 CALM      29.85S
GILA BEND      CLEAR     90  46  22 VRB6      29.82F
$$

AZZ503-504-507>509-202300-
SOUTHEAST ARIZONA

CITY           SKY/WX    TMP DP  RH WIND       PRES   REMARKS
TUCSON         SUNNY     84  47  27 MISG      29.91F
RYAN FIELD       N/A     84  46  26 NW7       29.90
NOGALES        PTSUNNY   72  44  36 E3        29.97F
SAFFORD        SUNNY     77  47  34 E8        29.95F
$$

AZZ020-021-025-026-031-202300-
SOUTHWEST ARIZONA

CITY           SKY/WX    TMP DP  RH WIND       PRES   REMARKS
YUMA           MOSUNNY   92  48  22 VRB3      29.77
$$

CAZ031-033-041-043-047-048-061-202300-
SOUTHERN CALIFORNIA

CITY           SKY/WX    TMP DP  RH WIND       PRES   REMARKS
DOWNTOWN L.A.  SUNNY     76  61  59 W9        29.87S
L.A. AIRPORT   MOSUNNY   71  61  70 W15       29.89F
SAN DIEGO      MOSUNNY   73  60  63 NW8       29.89F
BURBANK        SUNNY     78  54  43 S6        29.87F
ONTARIO        MOSUNNY   79  58  48 VRB5      29.88F
RIVERSIDE      SUNNY     79  58  48 CALM      29.88F
PALM SPRINGS   SUNNY     91  53  27 E6        29.81F
EL CENTRO NAS  MOSUNNY   94  51  23 CALM      29.75F
IMPERIAL       SUNNY     93  54  26 CALM      29.75F
BLYTHE         SUNNY     91  51  25 S7        29.79F
$$

NVZ020-UTZ003-202300-
SOUTHERN NEVADA-UTAH

CITY           SKY/WX    TMP DP  RH WIND       PRES   REMARKS
LAS VEGAS      NOT AVBL
SALT LAKE CITY MOSUNNY   79  35  20 S15       29.94F
$$

NMZ009-TXZ055-202300-
NEW MEXICO-WEST TEXAS

CITY           SKY/WX    TMP DP  RH WIND       PRES   REMARKS
ALBUQUERQUE    TSTM      67  42  40 E24       30.14R
EL PASO        PTSUNNY   72  50  45 SE14G21   30.01S
$$


........................KEY........................
SKY/WX - SKY CONDITION/WEATHER
TMP    - TEMPERATURE IN FAHRENHEIT
DP     - DEW POINT IN FAHRENHEIT
RH     - RELATIVE HUMIDITY IN PERCENT
WIND   - DIRECTION AND SPEED IN MILES PER HOUR (MPH)
VRB    - VARIABLE WIND DIRECTION
PRES   - MEAN SEA LEVEL PRESSURE IN INCHES OF MERCURY
         F - FALLING PRESSURE   R - RISING PRESSURE
         S - STEADY PRESSURE
VSB    - VISIBILITY IN MILES
HX     - HEAT INDEX IN FAHRENHEIT
WCI    - WIND CHILL INDEX IN FAHRENHEIT
TC     - TEMPERATURE IN CELSIUS WHICH IS ALSO KNOWN AS
         TEMPERATURE IN CENTIGRADE
AFB    - AIR FORCE BASE
         LUKE AFB IS LUKE AIR FORCE BASE
         DAVIS-MONTHAN IS DAVIS-MONTHAN AIR FORCE BASE
NAS    - NAVAL AIR STATION
         EL CENTRO NAS IS EL CENTRO NAVAL AIR STATION
N/A    - NOT AVAILABLE



USA.gov is the U.S. government's official web portal to all federal, state and local government web resources and services.